Location: Makanda
(37.6176°N, 89.2090°W)
Time: 21:03:24
(UTC+00:00)

Dummy Sat-01 - Pass Details

Date: 23 September 2019
Orbit: 503 x 521 km, 86.3° (Epoch: 12 October)

Event Time Altitude Azimuth Distance (km) Brightness Sun altitude
Rises 09:59:43 0° 357° (N) 2,618 8.5 -21.4°
Reaches altitude 10° 10:01:51 10° 357° (N) 1,726 7.5 -21.0°
Maximum altitude 10:05:37 85° 269° (W) 512 4.5 -20.3°
Enters shadow 10:07:26 29° 182° (S) 949 5.8 -19.9°
